Voltar ao catálogo

STARLINK-30282

AtivoComunicaçõesVLEO
NORAD 57883·PAYLOAD·🇺🇸 United States

Lançado Sep 16, 2023 de Cape Canaveral Space Force Station

Loading…

Próximas Passagens (próximas 24 horas)

TLE

AtualizadoSource: CelesTrak SupGP

Época: Sep 15, 2026, 02:15 UTC

1 57883C 23144V   26258.09423611  .00023014  00000+0  83374-3 0  2589
2 57883  43.0001 295.1651 0001442 262.7982 285.6721 15.27559841    16

Acompanhe STARLINK-30282 em tempo real com AllMySat

Download on the App Store